C/2012 X1 ( LINEAR )

Japanese version
Home page
Updated on June 11, 2016

---------------------------------------------------------------------

* Profile

Discovery Date December 8, 2012
Magnitude 19.4 mag
Discoverer Lincoln Laboratory Near-Earth Asteroid Research project

* Pictures

* Orbital Elements

Epoch 2014 Mar. 4.0 TT = JDT 2456720.5
T 2014 Feb. 21.62579 TT                                 MPCW
q   1.5989156            (2000.0)            P               Q
z  +0.0064742      Peri.  132.10808     -0.22408135     +0.73238184
                   Node   113.14671     -0.96330105     -0.26648812
e   0.9896483      Incl.   44.36721     +0.14777898     -0.62657874
From 2465 observations 2012 Dec. 8-2015 Dec. 9, mean residual 0".7.
     Nongravitational parameters A1 = +4.31, A2 = +2.3319.

* Finding Charts

* Magnitudes Graph

        m1 = 8.0 + 5 log d + 10.0 log r           [    ,-130]  (             - 2013 Oct. 14)
        m1 = 0.8 + 5 log d + 23   log r(t + 150)  [-130, -70]  (2013 Oct. 14 - 2013 Dec. 13)
        m1 = 3.3 + 5 log d + 15.0 log r           [ -70,    ]  (2013 Dec. 13 -             )

---------------------------------------------------------------------

The orbital elements are published on M.P.E.C. 2015-Y73.
The charts are made with StellaNavigator Ver.8 (AstroArts).
The magnitudes graphs are made with Comet for Windows.

---------------------------------------------------------------------

Copyright(C) Seiichi Yoshida (comet@aerith.net). All rights reserved.